Regional Weather Roundup
Issued by NWS

Home | Current Version | Previous Version | Text Only | Print | Product List | Glossary On
Versions: 1 2 3 4 5 6 7 8 9 10 11 12 13 14 15 16 17 18 19 20 21 22 23 24 25 26 27 28 29 30 31 32 33 34 35 36 37 38 39 40 41 42 43 44 45 46 47 48 49 50
000
ASUS45 KPSR 171800
RWRAZ

PRELIMINARY ARIZONA REGIONAL HOURLY WEATHER ROUNDUP
NATIONAL WEATHER SERVICE PHOENIX AZ
1100 AM MST WED SEP 17 2014

NOTE: FAIR INDICATES FEW OR NO CLOUDS BELOW 12,000 FEET WITH NO
SIGNIFICANT WEATHER AND/OR OBSTRUCTIONS TO VISIBILITY.

AZZ001>003-036-171900-
NORTHWEST ARIZONA

CITY           SKY/WX    TMP DP  RH WIND       PRES   REMARKS
KINGMAN        MOSUNNY   83  58  42 SE8       29.99F
6HR MIN TEMP:  63; 6HR MAX TEMP:  83;

$$

AZZ004>008-015-016-018-171900-
NORTH CENTRAL ARIZONA

CITY           SKY/WX    TMP DP  RH WIND       PRES   REMARKS
GRAND CANYON   PTSUNNY   71  53  52 SE12      30.21S
6HR MIN TEMP:  50; 6HR MAX TEMP:  71;

PRESCOTT       CLOUDY    70  59  68 VRB3      30.11S
6HR MIN TEMP:  64; 6HR MAX TEMP:  71; 6HR PCP: TRACE;

FLAGSTAFF      LGT RAIN  60  56  86 NE8       30.24S
6HR MIN TEMP:  56; 6HR MAX TEMP:  61; 6HR PCP:  0.02;

PAYSON         CLOUDY    70  63  78 VRB5      30.13S
PAGE           MOSUNNY   81  54  39 VRB5      30.07F
6HR MIN TEMP:  71; 6HR MAX TEMP:  83;

$$

AZZ009>014-017-171900-
NORTHEAST ARIZONA

CITY           SKY/WX    TMP DP  RH WIND       PRES   REMARKS
WINSLOW        NOT AVBL
SAINT JOHNS    LGT RAIN  66  59  78 E12       30.17F
6HR MIN TEMP:  60; 6HR MAX TEMP:  67; 6HR PCP:  0.03;

WINDOW ROCK    CLOUDY    67  50  54 S6        30.25F
6HR MIN TEMP:  56; 6HR MAX TEMP:  67;

SHOW LOW       PTSUNNY   63  57  82 NE7       30.22F
$$

AZZ023-171900-
GREATER PHOENIX AREA

CITY           SKY/WX    TMP DP  RH WIND       PRES   REMARKS
PHOENIX        CLOUDY    87  66  49 SE5       29.82S
6HR MIN TEMP:  81; 6HR MAX TEMP:  87; 6HR PCP: TRACE;

GLENDALE       PTSUNNY   90  66  45 E7        29.84S
DEER VALLEY    CLOUDY    88  64  44 VRB5      29.84S
6HR MIN TEMP:  79; 6HR MAX TEMP:  88; 6HR PCP: TRACE;

SCOTTSDALE     CLOUDY    88  64  44 VRB5      29.86S
6HR MIN TEMP:  79; 6HR MAX TEMP:  88; 6HR PCP: TRACE;

MESA-GATEWAY   CLOUDY    86  68  54 SW5       29.86R
$$

AZZ027-028-171900-
SOUTHWEST MARICOPA COUNTY AND PINAL COUNTY

CITY           SKY/WX    TMP DP  RH WIND       PRES   REMARKS
CASA GRANDE    CLOUDY    82  68  61 S6        29.86S
6HR MIN TEMP:  75; 6HR MAX TEMP:  82;

$$

AZZ503-504-507>509-171900-
SOUTHEAST ARIZONA

CITY           SKY/WX    TMP DP  RH WIND       PRES   REMARKS
TUCSON         LGT RAIN  76  69  79 E12       29.93S
6HR MIN TEMP:  74; 6HR MAX TEMP:  76; 6HR PCP:  0.08;

DAVIS-MONTHAN  LGT RAIN  75  68  78 SE12      29.91S
RYAN FIELD       N/A     75  73  94 E13       29.91F
NOGALES        RAIN      69  66  90 CALM      29.97F FOG
6HR MIN TEMP:  66; 6HR MAX TEMP:  69; 6HR PCP:  0.38;

SIERRA VISTA   LGT RAIN  66  66 100 SE9       30.04S FOG
                                      6HR PCP:  0.11;

SAFFORD        CLOUDY    75  67  76 SE6       29.99S
6HR MIN TEMP:  68; 6HR MAX TEMP:  76; 6HR PCP: TRACE;

$$

AZZ020-021-025-026-031-171900-
SOUTHWEST ARIZONA

CITY           SKY/WX    TMP DP  RH WIND       PRES   REMARKS
YUMA           PTSUNNY   94  67  41 N7        29.76S
6HR MIN TEMP:  83; 6HR MAX TEMP:  95;

$$

CAZ031-033-041-043-047-048-061-171900-
SOUTHERN CALIFORNIA

CITY           SKY/WX    TMP DP  RH WIND       PRES   REMARKS
DOWNTOWN L.A.  SUNNY     94  62  34 VRB3      29.74S
6HR MIN TEMP:  75; 6HR MAX TEMP:  95;

L.A. AIRPORT   MOSUNNY   83  62  49 W9        29.77R
6HR MIN TEMP:  74; 6HR MAX TEMP:  87;

SAN DIEGO      MOSUNNY   86  65  49 W8        29.76S
6HR MIN TEMP:  76; 6HR MAX TEMP:  86;

BURBANK        SUNNY     94  58  29 S8        29.77F
6HR MIN TEMP:  79; 6HR MAX TEMP:  95;

ONTARIO        MOSUNNY   94  63  35 W6        29.79S
6HR MIN TEMP:  81; 6HR MAX TEMP:  94;

RIVERSIDE      SUNNY     94  63  35 CALM      29.78F
6HR MIN TEMP:  81; 6HR MAX TEMP:  94;

PALM SPRINGS   MOSUNNY   94  64  37 VRB3      29.79F
6HR MIN TEMP:  83; 6HR MAX TEMP:  95;

EL CENTRO NAS  MOSUNNY   94  64  37 CALM      29.75S
6HR MIN TEMP:  80; 6HR MAX TEMP:  96;

IMPERIAL       SUNNY     94  66  39 NW5       29.75S
6HR MIN TEMP:  82; 6HR MAX TEMP:  94;

BLYTHE         CLOUDY    90  66  45 N5        29.79S
6HR MIN TEMP:  80; 6HR MAX TEMP:  91;

$$

NVZ020-UTZ003-171900-
SOUTHERN NEVADA-UTAH

CITY           SKY/WX    TMP DP  RH WIND       PRES   REMARKS
LAS VEGAS      NOT AVBL
SALT LAKE CITY MOSUNNY   88  41  19 S13G21    29.97F
6HR MIN TEMP:  69; 6HR MAX TEMP:  88;

$$

NMZ009-TXZ055-171900-
NEW MEXICO-WEST TEXAS

CITY           SKY/WX    TMP DP  RH WIND       PRES   REMARKS
ALBUQUERQUE    LGT RAIN  64  59  83 CALM      30.20S
6HR MIN TEMP:  61; 6HR MAX TEMP:  64; 6HR PCP:  0.11;

EL PASO        PTSUNNY   76  63  64 VRB7      30.07F
6HR MIN TEMP:  68; 6HR MAX TEMP:  77; 6HR PCP: TRACE;

$$


........................KEY........................
SKY/WX - SKY CONDITION/WEATHER
TMP    - TEMPERATURE IN FAHRENHEIT
DP     - DEW POINT IN FAHRENHEIT
RH     - RELATIVE HUMIDITY IN PERCENT
WIND   - DIRECTION AND SPEED IN MILES PER HOUR (MPH)
VRB    - VARIABLE WIND DIRECTION
PRES   - MEAN SEA LEVEL PRESSURE IN INCHES OF MERCURY
         F - FALLING PRESSURE   R - RISING PRESSURE
         S - STEADY PRESSURE
VSB    - VISIBILITY IN MILES
HX     - HEAT INDEX IN FAHRENHEIT
WCI    - WIND CHILL INDEX IN FAHRENHEIT
TC     - TEMPERATURE IN CELSIUS WHICH IS ALSO KNOWN AS
         TEMPERATURE IN CENTIGRADE
AFB    - AIR FORCE BASE
         LUKE AFB IS LUKE AIR FORCE BASE
         DAVIS-MONTHAN IS DAVIS-MONTHAN AIR FORCE BASE
NAS    - NAVAL AIR STATION
         EL CENTRO NAS IS EL CENTRO NAVAL AIR STATION
N/A    - NOT AVAILABLE


USA.gov is the U.S. government's official web portal to all federal, state and local government web resources and services.